User: anonymous   Login
Location: Unspecified
(0.0000°N, 0.0000°E)
Time: 20:47:55
(UTC+00:00)
Language:

SAC-C - Orbit

View from above orbital plane
View from above orbital plane
View from above satellite
View from above satellite

Ground track
Ground track

The orbit is defined by the following mean orbital elements,

1 26620U          26150.49782994 +.00000000 +00000-0 +14288-3 0 00001
2 26620  98.4970 161.8278 0001632  87.9657 272.1731 14.62906355    06
Epoch (UTC): 30 May 2026 11:56:52
Eccentricity: 0.0001632
inclination: 98.4970°
perigee height: 683 km
apogee height: 685 km
right ascension of ascending node: 161.8278°
argument of perigee: 87.9657°
revolutions per day: 14.62906355
mean anomaly at epoch: 272.1731°

The dashed part of the orbit path shows where the satellite is in the earth's shadow,  

DLR